Time,TemperatureF,DewpointF,PressureIn,WindDirection,WindDirectionDegrees,WindSpeedMPH,WindSpeedGustMPH,Humidity,HourlyPrecipIn,Conditions,Clouds,dailyrainin,SoftwareType,DateUTC
2013-02-05 00:00:00,37.3,19.9,30.07,WNW,303,0.0,0.0,49,0.00,,---,0.00,VWS V13.01,2013-02-05 07:00:00,
2013-02-05 00:01:00,37.1,20.2,30.05,WNW,303,0.0,0.0,50,0.00,,---,0.00,VWS V13.01,2013-02-05 07:01:00,
2013-02-05 00:06:00,36.6,19.7,30.05,WNW,303,0.0,0.0,50,0.00,,---,0.00,VWS V13.01,2013-02-05 07:06:00,
2013-02-05 00:11:00,36.4,20.0,30.06,WNW,303,0.0,0.0,51,0.00,,---,0.00,VWS V13.01,2013-02-05 07:11:00,
2013-02-05 00:15:00,36.3,20.4,30.06,WNW,303,2.0,3.0,52,0.00,,---,0.00,VWS V13.01,2013-02-05 07:15:00,
2013-02-05 00:16:00,36.5,20.6,30.06,WNW,303,4.0,5.0,52,0.00,,---,0.00,VWS V13.01,2013-02-05 07:16:00,
2013-02-05 00:21:00,37.1,20.7,30.05,WNW,303,2.0,5.0,51,0.00,,---,0.00,VWS V13.01,2013-02-05 07:21:00,
2013-02-05 00:26:00,37.0,20.6,30.04,WNW,303,0.0,5.0,51,0.00,,---,0.00,VWS V13.01,2013-02-05 07:26:00,
2013-02-05 00:30:00,36.7,20.3,30.04,WNW,303,0.0,5.0,51,0.00,,---,0.00,VWS V13.01,2013-02-05 07:30:00,
2013-02-05 00:31:00,36.6,20.2,30.04,WNW,303,1.0,2.0,51,0.00,,---,0.00,VWS V13.01,2013-02-05 07:31:00,
2013-02-05 00:36:00,36.2,20.3,30.06,WNW,303,0.0,5.0,52,0.00,,---,0.00,VWS V13.01,2013-02-05 07:36:00,
2013-02-05 00:41:00,36.2,20.7,30.06,East,90,0.0,5.0,53,0.00,,---,0.00,VWS V13.01,2013-02-05 07:41:00,
2013-02-05 00:45:00,36.4,20.9,30.06,East,90,0.0,5.0,53,0.00,,---,0.00,VWS V13.01,2013-02-05 07:45:00,
2013-02-05 00:46:00,36.5,21.0,30.05,East,90,0.0,0.0,53,0.00,,---,0.00,VWS V13.01,2013-02-05 07:46:00,
2013-02-05 00:51:00,36.5,20.6,30.04,East,90,0.0,2.0,52,0.00,,---,0.00,VWS V13.01,2013-02-05 07:51:00,
2013-02-05 00:56:00,36.7,21.6,30.04,WNW,287,3.0,6.0,54,0.00,,---,0.00,VWS V13.01,2013-02-05 07:56:00,
2013-02-05 01:00:00,37.3,22.2,30.04,WNW,284,0.0,9.0,54,0.00,,---,0.00,VWS V13.01,2013-02-05 08:00:00,
2013-02-05 01:01:00,37.4,21.9,30.03,WNW,284,0.0,2.0,53,0.00,,---,0.00,VWS V13.01,2013-02-05 08:01:00,
2013-02-05 01:06:00,37.6,22.0,30.03,WNW,284,0.0,2.0,53,0.00,,---,0.00,VWS V13.01,2013-02-05 08:06:00,
2013-02-05 01:11:00,37.5,21.9,30.03,WNW,284,0.0,3.0,53,0.00,,---,0.00,VWS V13.01,2013-02-05 08:11:00,
2013-02-05 01:15:00,37.1,21.1,30.03,WNW,284,0.0,3.0,52,0.00,,---,0.00,VWS V13.01,2013-02-05 08:15:00,
2013-02-05 01:16:00,37.0,21.5,30.04,WNW,284,0.0,0.0,53,0.00,,---,0.00,VWS V13.01,2013-02-05 08:16:00,
2013-02-05 01:21:00,36.5,21.0,30.04,West,276,3.0,4.0,53,0.00,,---,0.00,VWS V13.01,2013-02-05 08:21:00,
2013-02-05 01:26:00,36.5,21.0,30.04,West,276,0.0,4.0,53,0.00,,---,0.00,VWS V13.01,2013-02-05 08:26:00,
2013-02-05 01:30:00,36.3,21.3,30.06,West,276,3.0,4.0,54,0.00,,---,0.00,VWS V13.01,2013-02-05 08:30:00,
2013-02-05 01:31:00,36.4,21.8,30.06,West,276,0.0,3.0,55,0.00,,---,0.00,VWS V13.01,2013-02-05 08:31:00,
2013-02-05 01:36:00,36.5,21.5,30.04,West,276,2.0,3.0,54,0.00,,---,0.00,VWS V13.01,2013-02-05 08:36:00,
2013-02-05 01:41:00,36.5,21.9,30.04,West,276,3.0,4.0,55,0.00,,---,0.00,VWS V13.01,2013-02-05 08:41:00,
2013-02-05 01:45:00,36.3,21.7,30.05,West,276,2.0,4.0,55,0.00,,---,0.00,VWS V13.01,2013-02-05 08:45:00,
2013-02-05 01:46:00,36.2,21.6,30.05,West,276,2.0,3.0,55,0.00,,---,0.00,VWS V13.01,2013-02-05 08:46:00,
2013-02-05 01:51:00,36.0,21.4,30.05,West,276,4.0,5.0,55,0.00,,---,0.00,VWS V13.01,2013-02-05 08:51:00,
2013-02-05 01:56:00,36.2,21.6,30.05,WNW,297,7.0,7.0,55,0.00,,---,0.00,VWS V13.01,2013-02-05 08:56:00,
2013-02-05 02:00:00,36.7,21.6,30.04,West,279,5.0,11.0,54,0.00,,---,0.00,VWS V13.01,2013-02-05 09:00:00,
2013-02-05 02:01:00,37.0,21.9,30.04,WNW,283,4.0,10.0,54,0.00,,---,0.00,VWS V13.01,2013-02-05 09:01:00,
2013-02-05 02:06:00,37.8,22.2,30.03,West,275,6.0,10.0,53,0.00,,---,0.00,VWS V13.01,2013-02-05 09:06:00,
2013-02-05 02:11:00,37.9,22.3,30.03,West,273,7.0,10.0,53,0.00,,---,0.00,VWS V13.01,2013-02-05 09:11:00,
2013-02-05 02:15:00,38.0,22.4,30.03,WNW,287,8.0,10.0,53,0.00,,---,0.00,VWS V13.01,2013-02-05 09:15:00,
2013-02-05 02:16:00,38.0,22.4,30.03,WNW,286,6.0,9.0,53,0.00,,---,0.00,VWS V13.01,2013-02-05 09:16:00,
2013-02-05 02:21:00,37.9,21.9,30.02,West,268,7.0,9.0,52,0.00,,---,0.00,VWS V13.01,2013-02-05 09:21:00,
2013-02-05 02:26:00,37.6,21.6,30.02,NW,304,8.0,10.0,52,0.00,,---,0.00,VWS V13.01,2013-02-05 09:26:00,
2013-02-05 02:30:00,37.5,21.5,30.02,WNW,283,5.0,11.0,52,0.00,,---,0.00,VWS V13.01,2013-02-05 09:30:00,
2013-02-05 02:31:00,37.6,21.6,30.02,WNW,295,9.0,12.0,52,0.00,,---,0.00,VWS V13.01,2013-02-05 09:31:00,
2013-02-05 02:36:00,38.0,21.5,30.02,West,280,7.0,12.0,51,0.00,,---,0.00,VWS V13.01,2013-02-05 09:36:00,
2013-02-05 02:41:00,38.2,21.2,30.01,WNW,286,6.0,12.0,50,0.00,,---,0.00,VWS V13.01,2013-02-05 09:41:00,
2013-02-05 02:45:00,38.1,21.1,30.02,WNW,284,4.0,12.0,50,0.00,,---,0.00,VWS V13.01,2013-02-05 09:45:00,
2013-02-05 02:46:00,38.0,21.0,30.01,WNW,291,8.0,11.0,50,0.00,,---,0.00,VWS V13.01,2013-02-05 09:46:00,
2013-02-05 02:51:00,38.2,21.2,30.01,WNW,290,5.0,14.0,50,0.00,,---,0.00,VWS V13.01,2013-02-05 09:51:00,
2013-02-05 02:56:00,38.3,21.3,30.01,WNW,303,7.0,14.0,50,0.00,,---,0.00,VWS V13.01,2013-02-05 09:56:00,
2013-02-05 03:00:00,38.2,21.2,30.01,NW,322,5.0,14.0,50,0.00,,---,0.00,VWS V13.01,2013-02-05 10:00:00,
2013-02-05 03:01:00,38.2,21.2,30.02,NW,306,5.0,10.0,50,0.00,,---,0.00,VWS V13.01,2013-02-05 10:01:00,
2013-02-05 03:06:00,38.1,21.1,30.02,WNW,290,9.0,15.0,50,0.00,,---,0.00,VWS V13.01,2013-02-05 10:06:00,
2013-02-05 03:11:00,38.1,21.1,30.02,WNW,298,9.0,15.0,50,0.00,,---,0.00,VWS V13.01,2013-02-05 10:11:00,
2013-02-05 03:15:00,38.1,21.6,30.02,WNW,288,11.0,15.0,51,0.00,,---,0.00,VWS V13.01,2013-02-05 10:15:00,
2013-02-05 03:16:00,38.1,21.6,30.01,NW,317,11.0,15.0,51,0.00,,---,0.00,VWS V13.01,2013-02-05 10:16:00,
2013-02-05 03:21:00,38.2,20.7,30.02,NW,311,4.0,16.0,49,0.00,,---,0.00,VWS V13.01,2013-02-05 10:21:00,
2013-02-05 03:26:00,38.2,20.7,30.02,NW,321,6.0,16.0,49,0.00,,---,0.00,VWS V13.01,2013-02-05 10:26:00,
2013-02-05 03:30:00,38.1,20.6,30.02,WNW,303,6.0,16.0,49,0.00,,---,0.00,VWS V13.01,2013-02-05 10:30:00,
2013-02-05 03:31:00,38.1,20.6,30.02,WNW,300,8.0,11.0,49,0.00,,---,0.00,VWS V13.01,2013-02-05 10:31:00,
2013-02-05 03:36:00,37.8,20.4,30.02,NW,321,8.0,11.0,49,0.00,,---,0.00,VWS V13.01,2013-02-05 10:36:00,
2013-02-05 03:41:00,37.7,20.3,30.02,NW,325,7.0,11.0,49,0.00,,---,0.00,VWS V13.01,2013-02-05 10:41:00,
2013-02-05 03:45:00,37.8,20.4,30.03,WNW,303,9.0,11.0,49,0.00,,---,0.00,VWS V13.01,2013-02-05 10:45:00,
2013-02-05 03:46:00,37.9,20.5,30.03,NW,313,5.0,10.0,49,0.00,,---,0.00,VWS V13.01,2013-02-05 10:46:00,
2013-02-05 03:51:00,37.9,20.5,30.03,NW,323,6.0,10.0,49,0.00,,---,0.00,VWS V13.01,2013-02-05 10:51:00,
2013-02-05 03:56:00,37.8,20.4,30.03,WNW,284,6.0,10.0,49,0.00,,---,0.00,VWS V13.01,2013-02-05 10:56:00,
2013-02-05 04:00:00,37.7,20.3,30.03,WNW,283,9.0,11.0,49,0.00,,---,0.00,VWS V13.01,2013-02-05 11:00:00,
2013-02-05 04:01:00,37.6,20.2,30.04,WNW,296,10.0,11.0,49,0.00,,---,0.00,VWS V13.01,2013-02-05 11:01:00,
2013-02-05 04:07:00,37.6,20.2,30.04,NW,315,10.0,14.0,49,0.00,,---,0.00,VWS V13.01,2013-02-05 11:07:00,
2013-02-05 04:12:00,37.5,20.1,30.04,WNW,300,9.0,14.0,49,0.00,,---,0.00,VWS V13.01,2013-02-05 11:12:00,
2013-02-05 04:15:00,37.4,20.5,30.04,NW,312,6.0,14.0,50,0.00,,---,0.00,VWS V13.01,2013-02-05 11:15:00,
2013-02-05 04:17:00,37.3,20.4,30.04,NW,322,3.0,10.0,50,0.00,,---,0.00,VWS V13.01,2013-02-05 11:17:00,
2013-02-05 04:22:00,37.3,20.4,30.05,NW,306,9.0,12.0,50,0.00,,---,0.00,VWS V13.01,2013-02-05 11:22:00,
2013-02-05 04:27:00,37.2,20.3,30.04,NW,306,4.0,12.0,50,0.00,,---,0.00,VWS V13.01,2013-02-05 11:27:00,
2013-02-05 04:30:00,37.0,20.1,30.05,NW,307,4.0,12.0,50,0.00,,---,0.00,VWS V13.01,2013-02-05 11:30:00,
2013-02-05 04:32:00,36.9,20.5,30.04,NW,307,3.0,4.0,51,0.00,,---,0.00,VWS V13.01,2013-02-05 11:32:00,
2013-02-05 04:37:00,36.3,19.9,30.06,NW,307,0.0,5.0,51,0.00,,---,0.00,VWS V13.01,2013-02-05 11:37:00,
2013-02-05 04:42:00,35.8,19.9,30.06,NW,307,0.0,5.0,52,0.00,,---,0.00,VWS V13.01,2013-02-05 11:42:00,
2013-02-05 04:45:00,35.6,19.7,30.06,NW,307,0.0,5.0,52,0.00,,---,0.00,VWS V13.01,2013-02-05 11:45:00,
2013-02-05 04:47:00,35.5,20.1,30.06,NW,307,0.0,2.0,53,0.00,,---,0.00,VWS V13.01,2013-02-05 11:47:00,
2013-02-05 04:52:00,35.2,20.2,30.06,NW,307,0.0,2.0,54,0.00,,---,0.00,VWS V13.01,2013-02-05 11:52:00,
2013-02-05 04:57:00,35.2,20.2,30.06,WNW,296,3.0,6.0,54,0.00,,---,0.00,VWS V13.01,2013-02-05 11:57:00,
2013-02-05 05:00:00,35.5,20.5,30.06,WNW,302,3.0,7.0,54,0.00,,---,0.00,VWS V13.01,2013-02-05 12:00:00,
2013-02-05 05:02:00,35.7,20.7,30.08,WNW,289,4.0,6.0,54,0.00,,---,0.00,VWS V13.01,2013-02-05 12:02:00,
2013-02-05 05:07:00,36.0,21.0,30.08,WNW,290,3.0,11.0,54,0.00,,---,0.00,VWS V13.01,2013-02-05 12:07:00,
2013-02-05 05:12:00,36.0,21.0,30.08,WNW,284,3.0,11.0,54,0.00,,---,0.00,VWS V13.01,2013-02-05 12:12:00,
2013-02-05 05:15:00,35.9,20.9,30.08,WNW,298,4.0,11.0,54,0.00,,---,0.00,VWS V13.01,2013-02-05 12:15:00,
2013-02-05 05:17:00,36.0,21.0,30.08,NW,318,7.0,9.0,54,0.00,,---,0.00,VWS V13.01,2013-02-05 12:17:00,
2013-02-05 05:22:00,36.1,21.1,30.08,WNW,301,4.0,11.0,54,0.00,,---,0.00,VWS V13.01,2013-02-05 12:22:00,
2013-02-05 05:27:00,36.1,21.1,30.08,NW,306,3.0,11.0,54,0.00,,---,0.00,VWS V13.01,2013-02-05 12:27:00,
2013-02-05 05:30:00,36.0,21.0,30.08,NW,309,4.0,11.0,54,0.00,,---,0.00,VWS V13.01,2013-02-05 12:30:00,
2013-02-05 05:32:00,35.9,20.9,30.08,NW,309,0.0,5.0,54,0.00,,---,0.00,VWS V13.01,2013-02-05 12:32:00,
2013-02-05 05:37:00,35.6,21.0,30.08,NW,309,2.0,6.0,55,0.00,,---,0.00,VWS V13.01,2013-02-05 12:37:00,
2013-02-05 05:42:00,35.0,20.5,30.08,NW,309,0.0,6.0,55,0.00,,---,0.00,VWS V13.01,2013-02-05 12:42:00,
2013-02-05 05:45:00,34.6,20.1,30.09,NW,309,0.0,6.0,55,0.00,,---,0.00,VWS V13.01,2013-02-05 12:45:00,
2013-02-05 05:47:00,34.4,20.3,30.10,NW,309,0.0,1.0,56,0.00,,---,0.00,VWS V13.01,2013-02-05 12:47:00,
2013-02-05 05:52:00,34.1,20.5,30.10,NW,309,0.0,1.0,57,0.00,,---,0.00,VWS V13.01,2013-02-05 12:52:00,
2013-02-05 05:57:00,33.6,20.0,30.10,NW,309,0.0,1.0,57,0.00,,---,0.00,VWS V13.01,2013-02-05 12:57:00,
2013-02-05 06:00:00,33.4,20.2,30.10,NW,309,0.0,1.0,58,0.00,,---,0.00,VWS V13.01,2013-02-05 13:00:00,
2013-02-05 06:02:00,33.3,20.1,30.13,NW,309,0.0,0.0,58,0.00,,---,0.00,VWS V13.01,2013-02-05 13:02:00,
2013-02-05 06:07:00,32.9,19.8,30.13,NW,309,0.0,0.0,58,0.00,,---,0.00,VWS V13.01,2013-02-05 13:07:00,
2013-02-05 06:12:00,32.6,19.9,30.13,NW,309,0.0,0.0,59,0.00,,---,0.00,VWS V13.01,2013-02-05 13:12:00,
2013-02-05 06:15:00,32.5,20.2,30.13,NW,309,2.0,3.0,60,0.00,,---,0.00,VWS V13.01,2013-02-05 13:15:00,
2013-02-05 06:17:00,32.5,20.2,30.13,NW,309,2.0,4.0,60,0.00,,---,0.00,VWS V13.01,2013-02-05 13:17:00,
2013-02-05 06:22:00,33.0,21.0,30.13,NW,309,2.0,7.0,61,0.00,,---,0.00,VWS V13.01,2013-02-05 13:22:00,
2013-02-05 06:27:00,33.8,21.8,30.12,NW,309,0.0,7.0,61,0.00,,---,0.00,VWS V13.01,2013-02-05 13:27:00,
2013-02-05 06:30:00,33.9,21.5,30.12,NW,309,0.0,7.0,60,0.00,,---,0.00,VWS V13.01,2013-02-05 13:30:00,
2013-02-05 06:32:00,34.1,21.7,30.12,NW,309,0.0,0.0,60,0.00,,---,0.00,VWS V13.01,2013-02-05 13:32:00,
2013-02-05 06:37:00,33.8,21.0,30.12,NW,309,0.0,0.0,59,0.00,,---,0.00,VWS V13.01,2013-02-05 13:37:00,
2013-02-05 06:42:00,33.3,20.5,30.13,NW,309,0.0,0.0,59,0.00,,---,0.00,VWS V13.01,2013-02-05 13:42:00,
2013-02-05 06:45:00,33.0,20.6,30.13,NW,309,2.0,2.0,60,0.00,,---,0.00,VWS V13.01,2013-02-05 13:45:00,
2013-02-05 06:47:00,32.7,20.4,30.14,NW,309,1.0,3.0,60,0.00,,---,0.00,VWS V13.01,2013-02-05 13:47:00,
2013-02-05 06:52:00,32.7,21.1,30.13,NW,310,2.0,5.0,62,0.00,,---,0.00,VWS V13.01,2013-02-05 13:52:00,
2013-02-05 06:57:00,32.9,21.3,30.14,NW,310,3.0,5.0,62,0.00,,---,0.00,VWS V13.01,2013-02-05 13:57:00,
2013-02-05 07:00:00,33.0,21.4,30.14,NW,310,0.0,5.0,62,0.00,,---,0.00,VWS V13.01,2013-02-05 14:00:00,
2013-02-05 07:02:00,33.1,21.1,30.14,NW,310,0.0,3.0,61,0.00,,---,0.00,VWS V13.01,2013-02-05 14:02:00,
2013-02-05 07:07:00,33.4,21.4,30.14,NW,326,2.0,11.0,61,0.00,,---,0.00,VWS V13.01,2013-02-05 14:07:00,
2013-02-05 07:12:00,33.8,21.4,30.14,NNW,329,1.0,11.0,60,0.00,,---,0.00,VWS V13.01,2013-02-05 14:12:00,
2013-02-05 07:15:00,33.8,21.4,30.14,NNW,329,3.0,11.0,60,0.00,,---,0.00,VWS V13.01,2013-02-05 14:15:00,
2013-02-05 07:17:00,33.9,21.5,30.14,NNW,329,2.0,3.0,60,0.00,,---,0.00,VWS V13.01,2013-02-05 14:17:00,
2013-02-05 07:22:00,34.3,21.9,30.15,NNW,329,2.0,3.0,60,0.00,,---,0.00,VWS V13.01,2013-02-05 14:22:00,
2013-02-05 07:27:00,34.3,21.5,30.15,NNW,329,1.0,3.0,59,0.00,,---,0.00,VWS V13.01,2013-02-05 14:27:00,
2013-02-05 07:30:00,34.4,22.0,30.15,NNW,329,1.0,3.0,60,0.00,,---,0.00,VWS V13.01,2013-02-05 14:30:00,
2013-02-05 07:32:00,34.4,22.0,30.15,NNW,329,0.0,2.0,60,0.00,,---,0.00,VWS V13.01,2013-02-05 14:32:00,
2013-02-05 07:37:00,34.9,22.0,30.14,NNW,329,0.0,2.0,59,0.00,,---,0.00,VWS V13.01,2013-02-05 14:37:00,
2013-02-05 07:42:00,36.0,22.7,30.14,NNW,329,0.0,2.0,58,0.00,,---,0.00,VWS V13.01,2013-02-05 14:42:00,
2013-02-05 07:45:00,36.5,22.7,30.13,NNW,329,0.0,2.0,57,0.00,,---,0.00,VWS V13.01,2013-02-05 14:45:00,
2013-02-05 07:47:00,37.0,22.8,30.13,NNW,329,0.0,0.0,56,0.00,,---,0.00,VWS V13.01,2013-02-05 14:47:00,
2013-02-05 07:52:00,37.3,22.6,30.13,NNW,329,0.0,1.0,55,0.00,,---,0.00,VWS V13.01,2013-02-05 14:52:00,
2013-02-05 07:57:00,37.1,22.4,30.13,NNW,329,0.0,1.0,55,0.00,,---,0.00,VWS V13.01,2013-02-05 14:57:00,
2013-02-05 08:00:00,37.3,22.6,30.13,NNW,329,1.0,1.0,55,0.00,,---,0.00,VWS V13.01,2013-02-05 15:00:00,
2013-02-05 08:02:00,37.7,22.6,30.15,NNW,329,2.0,3.0,54,0.00,,---,0.00,VWS V13.01,2013-02-05 15:02:00,
2013-02-05 08:07:00,38.5,22.9,30.14,NNW,329,0.0,3.0,53,0.00,,---,0.00,VWS V13.01,2013-02-05 15:07:00,
2013-02-05 08:12:00,38.9,22.8,30.13,NNW,329,0.0,3.0,52,0.00,,---,0.00,VWS V13.01,2013-02-05 15:12:00,
2013-02-05 08:15:00,39.1,22.5,30.14,NNW,329,1.0,3.0,51,0.00,,---,0.00,VWS V13.01,2013-02-05 15:15:00,
2013-02-05 08:17:00,39.2,22.6,30.14,NNW,329,0.0,1.0,51,0.00,,---,0.00,VWS V13.01,2013-02-05 15:17:00,
2013-02-05 08:22:00,39.6,22.5,30.14,NNW,329,0.0,3.0,50,0.00,,---,0.00,VWS V13.01,2013-02-05 15:22:00,
2013-02-05 08:27:00,39.8,22.7,30.14,NNW,329,0.0,3.0,50,0.00,,---,0.00,VWS V13.01,2013-02-05 15:27:00,
2013-02-05 08:30:00,39.9,22.8,30.14,NNW,329,0.0,3.0,50,0.00,,---,0.00,VWS V13.01,2013-02-05 15:30:00,
2013-02-05 08:32:00,40.1,22.5,30.14,NNW,329,0.0,1.0,49,0.00,,---,0.00,VWS V13.01,2013-02-05 15:32:00,
2013-02-05 08:37:00,40.4,22.8,30.14,NNW,329,0.0,1.0,49,0.00,,---,0.00,VWS V13.01,2013-02-05 15:37:00,
2013-02-05 08:42:00,40.6,22.5,30.13,NNW,329,0.0,2.0,48,0.00,,---,0.00,VWS V13.01,2013-02-05 15:42:00,
2013-02-05 08:45:00,40.9,22.7,30.13,NNW,329,0.0,2.0,48,0.00,,---,0.00,VWS V13.01,2013-02-05 15:45:00,
2013-02-05 08:47:00,41.3,22.6,30.13,NNW,329,0.0,1.0,47,0.00,,---,0.00,VWS V13.01,2013-02-05 15:47:00,
2013-02-05 08:52:00,41.9,22.6,30.13,NNW,329,0.0,2.0,46,0.00,,---,0.00,VWS V13.01,2013-02-05 15:52:00,
2013-02-05 08:57:00,42.1,22.8,30.13,NNW,329,3.0,4.0,46,0.00,,---,0.00,VWS V13.01,2013-02-05 15:57:00,
2013-02-05 09:00:00,42.0,22.7,30.13,NNW,329,3.0,4.0,46,0.00,,---,0.00,VWS V13.01,2013-02-05 16:00:00,
2013-02-05 09:02:00,41.9,22.6,30.13,NNW,329,0.0,3.0,46,0.00,,---,0.00,VWS V13.01,2013-02-05 16:02:00,
2013-02-05 09:07:00,42.0,22.2,30.13,NNW,329,1.0,3.0,45,0.00,,---,0.00,VWS V13.01,2013-02-05 16:07:00,
2013-02-05 09:12:00,42.0,22.7,30.13,NNW,329,0.0,3.0,46,0.00,,---,0.00,VWS V13.01,2013-02-05 16:12:00,
2013-02-05 09:15:00,42.0,22.7,30.13,NNW,329,1.0,3.0,46,0.00,,---,0.00,VWS V13.01,2013-02-05 16:15:00,
2013-02-05 09:17:00,42.1,22.8,30.13,NNW,329,0.0,4.0,46,0.00,,---,0.00,VWS V13.01,2013-02-05 16:17:00,
2013-02-05 09:22:00,42.5,22.7,30.13,NNW,329,4.0,4.0,45,0.00,,---,0.00,VWS V13.01,2013-02-05 16:22:00,
2013-02-05 09:27:00,43.0,22.0,30.11,NW,306,8.0,12.0,43,0.00,,---,0.00,VWS V13.01,2013-02-05 16:27:00,
2013-02-05 09:30:00,43.4,21.9,30.11,NNW,337,7.0,12.0,42,0.00,,---,0.00,VWS V13.01,2013-02-05 16:30:00,
2013-02-05 09:32:00,43.8,21.6,30.11,NNW,345,5.0,10.0,41,0.00,,---,0.00,VWS V13.01,2013-02-05 16:32:00,
2013-02-05 09:38:00,44.5,21.1,30.11,North,350,4.0,11.0,39,0.00,,---,0.00,VWS V13.01,2013-02-05 16:38:00,
2013-02-05 09:43:00,45.3,21.2,30.10,North,349,2.0,11.0,38,0.00,,---,0.00,VWS V13.01,2013-02-05 16:43:00,
2013-02-05 09:45:00,45.7,20.9,30.10,NNW,336,4.0,11.0,37,0.00,,---,0.00,VWS V13.01,2013-02-05 16:45:00,
2013-02-05 09:48:00,46.0,20.6,30.10,NNW,329,6.0,10.0,36,0.00,,---,0.00,VWS V13.01,2013-02-05 16:48:00,
2013-02-05 09:53:00,46.5,20.3,30.10,NW,315,4.0,10.0,35,0.00,,---,0.00,VWS V13.01,2013-02-05 16:53:00,
2013-02-05 09:58:00,47.0,20.8,30.09,North,350,5.0,11.0,35,0.00,,---,0.00,VWS V13.01,2013-02-05 16:58:00,
2013-02-05 10:00:00,47.4,20.5,30.09,North,350,6.0,11.0,34,0.00,,---,0.00,VWS V13.01,2013-02-05 17:00:00,
2013-02-05 10:03:00,47.6,19.9,30.09,NE,45,9.0,10.0,33,0.00,,---,0.00,VWS V13.01,2013-02-05 17:03:00,
2013-02-05 10:08:00,47.6,19.2,30.09,NW,311,7.0,13.0,32,0.00,,---,0.00,VWS V13.01,2013-02-05 17:08:00,
2013-02-05 10:13:00,47.8,20.1,30.09,NNE,13,4.0,13.0,33,0.00,,---,0.00,VWS V13.01,2013-02-05 17:13:00,
2013-02-05 10:15:00,48.0,20.3,30.09,NNW,345,4.0,13.0,33,0.00,,---,0.00,VWS V13.01,2013-02-05 17:15:00,
2013-02-05 10:18:00,48.4,19.9,30.09,North,9,4.0,7.0,32,0.00,,---,0.00,VWS V13.01,2013-02-05 17:18:00,
2013-02-05 10:23:00,48.6,19.4,30.09,NNW,331,9.0,12.0,31,0.00,,---,0.00,VWS V13.01,2013-02-05 17:23:00,
2013-02-05 10:28:00,48.5,20.0,30.09,NW,314,10.0,14.0,32,0.00,,---,0.00,VWS V13.01,2013-02-05 17:28:00,
2013-02-05 10:30:00,48.3,19.8,30.09,NNW,340,3.0,14.0,32,0.00,,---,0.00,VWS V13.01,2013-02-05 17:30:00,
2013-02-05 10:33:00,48.3,19.8,30.09,NNW,342,10.0,14.0,32,0.00,,---,0.00,VWS V13.01,2013-02-05 17:33:00,
2013-02-05 10:38:00,48.6,20.8,30.08,NNE,22,6.0,14.0,33,0.00,,---,0.00,VWS V13.01,2013-02-05 17:38:00,
2013-02-05 10:43:00,49.2,20.6,30.09,North,349,5.0,14.0,32,0.00,,---,0.00,VWS V13.01,2013-02-05 17:43:00,
2013-02-05 10:45:00,49.3,21.4,30.09,NNW,337,9.0,14.0,33,0.00,,---,0.00,VWS V13.01,2013-02-05 17:45:00,
2013-02-05 10:48:00,49.1,21.3,30.08,NW,308,2.0,10.0,33,0.00,,---,0.00,VWS V13.01,2013-02-05 17:48:00,
2013-02-05 10:53:00,49.3,20.7,30.08,NNE,24,3.0,10.0,32,0.00,,---,0.00,VWS V13.01,2013-02-05 17:53:00,
2013-02-05 10:58:00,49.8,20.4,30.07,NW,304,0.0,10.0,31,0.00,,---,0.00,VWS V13.01,2013-02-05 17:58:00,
2013-02-05 11:00:00,50.0,20.6,30.07,NW,310,3.0,10.0,31,0.00,,---,0.00,VWS V13.01,2013-02-05 18:00:00,
2013-02-05 11:03:00,50.1,19.9,30.09,WNW,291,6.0,11.0,30,0.00,,---,0.00,VWS V13.01,2013-02-05 18:03:00,
2013-02-05 11:08:00,49.6,20.2,30.09,WNW,300,5.0,11.0,31,0.00,,---,0.00,VWS V13.01,2013-02-05 18:08:00,
2013-02-05 11:13:00,49.9,20.5,30.09,NNW,333,1.0,11.0,31,0.00,,---,0.00,VWS V13.01,2013-02-05 18:13:00,
2013-02-05 11:15:00,50.2,20.8,30.09,NW,321,4.0,11.0,31,0.00,,---,0.00,VWS V13.01,2013-02-05 18:15:00,
2013-02-05 11:18:00,50.8,20.5,30.07,NNW,341,7.0,11.0,30,0.00,,---,0.00,VWS V13.01,2013-02-05 18:18:00,
2013-02-05 11:23:00,51.1,20.0,30.07,NW,305,3.0,11.0,29,0.00,,---,0.00,VWS V13.01,2013-02-05 18:23:00,
2013-02-05 11:28:00,50.9,19.8,30.07,NNW,328,8.0,12.0,29,0.00,,---,0.00,VWS V13.01,2013-02-05 18:28:00,
2013-02-05 11:30:00,50.7,18.8,30.07,NNW,333,10.0,12.0,28,0.00,,---,0.00,VWS V13.01,2013-02-05 18:30:00,
2013-02-05 11:33:00,50.8,18.9,30.06,NNW,340,3.0,10.0,28,0.00,,---,0.00,VWS V13.01,2013-02-05 18:33:00,
2013-02-05 11:38:00,51.3,18.5,30.06,NNW,328,6.0,12.0,27,0.00,,---,0.00,VWS V13.01,2013-02-05 18:38:00,
2013-02-05 11:43:00,51.3,18.5,30.05,NW,320,5.0,12.0,27,0.00,,---,0.00,VWS V13.01,2013-02-05 18:43:00,
2013-02-05 11:45:00,51.4,18.6,30.05,NW,322,9.0,12.0,27,0.00,,---,0.00,VWS V13.01,2013-02-05 18:45:00,
2013-02-05 11:48:00,51.4,18.6,30.05,NW,323,5.0,12.0,27,0.00,,---,0.00,VWS V13.01,2013-02-05 18:48:00,
2013-02-05 11:53:00,51.2,18.4,30.05,WNW,298,7.0,14.0,27,0.00,,---,0.00,VWS V13.01,2013-02-05 18:53:00,
2013-02-05 11:58:00,51.2,18.4,30.05,WNW,299,12.0,15.0,27,0.00,,---,0.00,VWS V13.01,2013-02-05 18:58:00,
2013-02-05 12:00:00,51.2,18.4,30.05,NW,304,6.0,15.0,27,0.00,,---,0.00,VWS V13.01,2013-02-05 19:00:00,
2013-02-05 12:03:00,51.4,18.6,30.04,West,279,7.0,15.0,27,0.00,,---,0.00,VWS V13.01,2013-02-05 19:03:00,
2013-02-05 12:08:00,51.5,18.6,30.04,NNW,330,3.0,15.0,27,0.00,,---,0.00,VWS V13.01,2013-02-05 19:08:00,
2013-02-05 12:13:00,51.7,18.8,30.04,NW,325,5.0,15.0,27,0.00,,---,0.00,VWS V13.01,2013-02-05 19:13:00,
2013-02-05 12:15:00,51.8,18.9,30.04,NNW,331,5.0,15.0,27,0.00,,---,0.00,VWS V13.01,2013-02-05 19:15:00,
2013-02-05 12:18:00,52.2,19.2,30.04,NNW,327,0.0,8.0,27,0.00,,---,0.00,VWS V13.01,2013-02-05 19:18:00,
2013-02-05 12:23:00,52.8,18.9,30.02,NE,42,4.0,8.0,26,0.00,,---,0.00,VWS V13.01,2013-02-05 19:23:00,
2013-02-05 12:28:00,53.1,19.1,30.02,NNE,29,3.0,10.0,26,0.00,,---,0.00,VWS V13.01,2013-02-05 19:28:00,
2013-02-05 12:30:00,53.1,19.1,30.02,NNE,30,0.0,10.0,26,0.00,,---,0.00,VWS V13.01,2013-02-05 19:30:00,
2013-02-05 12:33:00,53.4,19.4,30.02,North,5,5.0,5.0,26,0.00,,---,0.00,VWS V13.01,2013-02-05 19:33:00,
2013-02-05 12:38:00,53.3,18.4,30.01,NW,322,0.0,5.0,25,0.00,,---,0.00,VWS V13.01,2013-02-05 19:38:00,
2013-02-05 12:43:00,53.5,18.6,30.01,NNW,333,4.0,10.0,25,0.00,,---,0.00,VWS V13.01,2013-02-05 19:43:00,
2013-02-05 12:45:00,53.6,18.6,30.01,WNW,294,5.0,10.0,25,0.00,,---,0.00,VWS V13.01,2013-02-05 19:45:00,
2013-02-05 12:48:00,53.6,18.6,30.01,West,277,8.0,9.0,25,0.00,,---,0.00,VWS V13.01,2013-02-05 19:48:00,
2013-02-05 12:53:00,53.5,19.5,30.01,WSW,257,6.0,10.0,26,0.00,,---,0.00,VWS V13.01,2013-02-05 19:53:00,
2013-02-05 12:58:00,53.7,18.7,30.01,WSW,246,7.0,10.0,25,0.00,,---,0.00,VWS V13.01,2013-02-05 19:58:00,
2013-02-05 13:00:00,53.7,18.7,30.00,WSW,246,1.0,10.0,25,0.00,,---,0.00,VWS V13.01,2013-02-05 20:00:00,
2013-02-05 13:03:00,54.1,19.1,30.00,WSW,256,4.0,12.0,25,0.00,,---,0.00,VWS V13.01,2013-02-05 20:03:00,
2013-02-05 13:08:00,54.0,19.0,30.00,WNW,296,5.0,12.0,25,0.00,,---,0.00,VWS V13.01,2013-02-05 20:08:00,
2013-02-05 13:13:00,54.2,19.2,30.00,West,275,0.0,12.0,25,0.00,,---,0.00,VWS V13.01,2013-02-05 20:13:00,
2013-02-05 13:15:00,54.2,19.2,30.00,West,275,0.0,12.0,25,0.00,,---,0.00,VWS V13.01,2013-02-05 20:15:00,
2013-02-05 13:18:00,54.3,19.2,30.00,WSW,254,3.0,10.0,25,0.00,,---,0.00,VWS V13.01,2013-02-05 20:18:00,
2013-02-05 13:24:00,54.2,18.2,29.99,WSW,253,0.0,10.0,24,0.00,,---,0.00,VWS V13.01,2013-02-05 20:24:00,
2013-02-05 13:29:00,54.6,18.5,29.98,NW,306,4.0,10.0,24,0.00,,---,0.00,VWS V13.01,2013-02-05 20:29:00,
2013-02-05 13:30:00,54.6,18.5,29.98,NW,306,0.0,10.0,24,0.00,,---,0.00,VWS V13.01,2013-02-05 20:30:00,
2013-02-05 13:34:00,54.9,18.8,29.98,NW,306,2.0,2.0,24,0.00,,---,0.00,VWS V13.01,2013-02-05 20:34:00,
2013-02-05 13:39:00,55.3,19.1,29.97,WNW,303,1.0,9.0,24,0.00,,---,0.00,VWS V13.01,2013-02-05 20:39:00,
2013-02-05 13:44:00,55.3,18.1,29.97,NW,311,3.0,9.0,23,0.00,,---,0.00,VWS V13.01,2013-02-05 20:44:00,
2013-02-05 13:45:00,55.2,18.1,29.97,NW,311,0.0,9.0,23,0.00,,---,0.00,VWS V13.01,2013-02-05 20:45:00,
2013-02-05 13:49:00,55.5,18.3,29.97,NW,321,0.0,5.0,23,0.00,,---,0.00,VWS V13.01,2013-02-05 20:49:00,
2013-02-05 13:54:00,55.7,18.5,29.97,NW,321,3.0,5.0,23,0.00,,---,0.00,VWS V13.01,2013-02-05 20:54:00,
2013-02-05 13:59:00,56.3,19.0,29.97,NW,321,0.0,5.0,23,0.00,,---,0.00,VWS V13.01,2013-02-05 20:59:00,
2013-02-05 14:00:00,56.4,19.1,29.97,NW,321,3.0,5.0,23,0.00,,---,0.00,VWS V13.01,2013-02-05 21:00:00,
2013-02-05 14:04:00,56.4,19.1,29.95,NW,321,0.0,5.0,23,0.00,,---,0.00,VWS V13.01,2013-02-05 21:04:00,
2013-02-05 14:09:00,56.2,18.9,29.95,West,271,0.0,6.0,23,0.00,,---,0.00,VWS V13.01,2013-02-05 21:09:00,
2013-02-05 14:14:00,56.6,19.2,29.95,West,271,2.0,6.0,23,0.00,,---,0.00,VWS V13.01,2013-02-05 21:14:00,
2013-02-05 14:15:00,56.7,19.3,29.95,West,271,0.0,6.0,23,0.00,,---,0.00,VWS V13.01,2013-02-05 21:15:00,
2013-02-05 14:19:00,57.2,19.8,29.95,SSW,206,1.0,5.0,23,0.00,,---,0.00,VWS V13.01,2013-02-05 21:19:00,
2013-02-05 14:24:00,57.3,18.8,29.95,SSW,206,0.0,5.0,22,0.00,,---,0.00,VWS V13.01,2013-02-05 21:24:00,
2013-02-05 14:29:00,57.5,19.0,29.94,SSW,206,1.0,5.0,22,0.00,,---,0.00,VWS V13.01,2013-02-05 21:29:00,
2013-02-05 14:30:00,57.5,19.0,29.94,SSW,206,2.0,5.0,22,0.00,,---,0.00,VWS V13.01,2013-02-05 21:30:00,
2013-02-05 14:34:00,57.1,18.6,29.95,South,190,0.0,2.0,22,0.00,,---,0.00,VWS V13.01,2013-02-05 21:34:00,
2013-02-05 14:39:00,57.0,18.5,29.94,South,182,2.0,4.0,22,0.00,,---,0.00,VWS V13.01,2013-02-05 21:39:00,
2013-02-05 14:44:00,56.9,18.5,29.94,South,182,2.0,4.0,22,0.00,,---,0.00,VWS V13.01,2013-02-05 21:44:00,
2013-02-05 14:45:00,56.9,18.5,29.94,South,182,2.0,4.0,22,0.00,,---,0.00,VWS V13.01,2013-02-05 21:45:00,
2013-02-05 14:49:00,56.8,18.4,29.94,South,182,0.0,5.0,22,0.00,,---,0.00,VWS V13.01,2013-02-05 21:49:00,
2013-02-05 14:54:00,57.3,18.8,29.94,SE,125,9.0,10.0,22,0.00,,---,0.00,VWS V13.01,2013-02-05 21:54:00,
2013-02-05 14:59:00,57.5,19.0,29.94,NNW,346,3.0,10.0,22,0.00,,---,0.00,VWS V13.01,2013-02-05 21:59:00,
2013-02-05 15:00:00,57.5,19.0,29.94,NNW,339,0.0,10.0,22,0.00,,---,0.00,VWS V13.01,2013-02-05 22:00:00,
2013-02-05 15:04:00,57.8,19.2,29.93,NNW,338,0.0,5.0,22,0.00,,---,0.00,VWS V13.01,2013-02-05 22:04:00,
2013-02-05 15:09:00,57.4,18.9,29.93,NNW,348,0.0,5.0,22,0.00,,---,0.00,VWS V13.01,2013-02-05 22:09:00,
2013-02-05 15:14:00,57.2,18.7,29.94,NNW,348,0.0,5.0,22,0.00,,---,0.00,VWS V13.01,2013-02-05 22:14:00,
2013-02-05 15:15:00,57.2,18.7,29.94,NNW,348,0.0,5.0,22,0.00,,---,0.00,VWS V13.01,2013-02-05 22:15:00,
2013-02-05 15:19:00,57.2,18.7,29.94,North,355,2.0,5.0,22,0.00,,---,0.00,VWS V13.01,2013-02-05 22:19:00,
2013-02-05 15:24:00,57.3,18.8,29.94,North,355,0.0,5.0,22,0.00,,---,0.00,VWS V13.01,2013-02-05 22:24:00,
2013-02-05 15:29:00,57.2,18.7,29.94,North,355,2.0,6.0,22,0.00,,---,0.00,VWS V13.01,2013-02-05 22:29:00,
2013-02-05 15:30:00,57.2,18.7,29.94,North,355,2.0,6.0,22,0.00,,---,0.00,VWS V13.01,2013-02-05 22:30:00,
2013-02-05 15:34:00,57.0,18.5,29.94,North,355,2.0,4.0,22,0.00,,---,0.00,VWS V13.01,2013-02-05 22:34:00,
2013-02-05 15:39:00,57.4,18.9,29.94,North,355,0.0,4.0,22,0.00,,---,0.00,VWS V13.01,2013-02-05 22:39:00,
2013-02-05 15:44:00,57.9,19.3,29.93,North,355,0.0,4.0,22,0.00,,---,0.00,VWS V13.01,2013-02-05 22:44:00,
2013-02-05 15:45:00,58.0,19.4,29.93,North,355,1.0,4.0,22,0.00,,---,0.00,VWS V13.01,2013-02-05 22:45:00,
2013-02-05 15:49:00,58.7,18.9,29.92,North,355,1.0,3.0,21,0.00,,---,0.00,VWS V13.01,2013-02-05 22:49:00,
2013-02-05 15:54:00,59.0,19.1,29.92,North,355,0.0,3.0,21,0.00,,---,0.00,VWS V13.01,2013-02-05 22:54:00,
2013-02-05 15:59:00,59.0,19.1,29.92,NNW,333,0.0,4.0,21,0.00,,---,0.00,VWS V13.01,2013-02-05 22:59:00,
2013-02-05 16:00:00,59.0,19.1,29.92,NNW,333,3.0,4.0,21,0.00,,---,0.00,VWS V13.01,2013-02-05 23:00:00,
2013-02-05 16:04:00,59.0,19.1,29.93,NNW,333,1.0,4.0,21,0.00,,---,0.00,VWS V13.01,2013-02-05 23:04:00,
2013-02-05 16:09:00,58.9,19.1,29.93,NNW,333,0.0,4.0,21,0.00,,---,0.00,VWS V13.01,2013-02-05 23:09:00,
2013-02-05 16:14:00,58.4,18.6,29.93,NW,318,4.0,4.0,21,0.00,,---,0.00,VWS V13.01,2013-02-05 23:14:00,
2013-02-05 16:15:00,58.4,18.6,29.93,South,187,5.0,6.0,21,0.00,,---,0.00,VWS V13.01,2013-02-05 23:15:00,
2013-02-05 16:19:00,58.0,18.3,29.93,South,184,3.0,5.0,21,0.00,,---,0.00,VWS V13.01,2013-02-05 23:19:00,
2013-02-05 16:24:00,57.2,18.7,29.94,South,184,2.0,5.0,22,0.00,,---,0.00,VWS V13.01,2013-02-05 23:24:00,
2013-02-05 16:29:00,56.7,18.3,29.94,SSE,165,2.0,6.0,22,0.00,,---,0.00,VWS V13.01,2013-02-05 23:29:00,
2013-02-05 16:30:00,56.6,18.2,29.94,SSE,166,0.0,6.0,22,0.00,,---,0.00,VWS V13.01,2013-02-05 23:30:00,
2013-02-05 16:34:00,57.2,18.7,29.95,SSE,165,4.0,5.0,22,0.00,,---,0.00,VWS V13.01,2013-02-05 23:34:00,
2013-02-05 16:39:00,57.5,19.0,29.93,SSE,166,1.0,5.0,22,0.00,,---,0.00,VWS V13.01,2013-02-05 23:39:00,
2013-02-05 16:44:00,57.7,19.1,29.93,SSE,166,0.0,5.0,22,0.00,,---,0.00,VWS V13.01,2013-02-05 23:44:00,
2013-02-05 16:45:00,57.8,19.2,29.93,SSE,166,0.0,5.0,22,0.00,,---,0.00,VWS V13.01,2013-02-05 23:45:00,
2013-02-05 16:49:00,57.9,19.3,29.93,SSE,166,3.0,4.0,22,0.00,,---,0.00,VWS V13.01,2013-02-05 23:49:00,
2013-02-05 16:54:00,57.6,19.1,29.93,SSE,165,0.0,4.0,22,0.00,,---,0.00,VWS V13.01,2013-02-05 23:54:00,
2013-02-05 16:59:00,57.6,19.1,29.93,SSE,165,0.0,4.0,22,0.00,,---,0.00,VWS V13.01,2013-02-05 23:59:00,
2013-02-05 17:00:00,57.6,19.1,29.93,SSE,166,0.0,4.0,22,0.00,,---,0.00,VWS V13.01,2013-02-06 00:00:00,
2013-02-05 17:04:00,57.6,19.1,29.96,SSE,166,0.0,0.0,22,0.00,,---,0.00,VWS V13.01,2013-02-06 00:04:00,
2013-02-05 17:09:00,57.5,19.0,29.96,SSE,166,0.0,1.0,22,0.00,,---,0.00,VWS V13.01,2013-02-06 00:09:00,
2013-02-05 17:14:00,57.5,19.0,29.96,SSE,165,0.0,1.0,22,0.00,,---,0.00,VWS V13.01,2013-02-06 00:14:00,
2013-02-05 17:15:00,57.5,19.0,29.96,SSE,165,0.0,1.0,22,0.00,,---,0.00,VWS V13.01,2013-02-06 00:15:00,
2013-02-05 17:19:00,57.4,18.9,29.96,SSE,166,0.0,0.0,22,0.00,,---,0.00,VWS V13.01,2013-02-06 00:19:00,
2013-02-05 17:24:00,56.6,18.2,29.96,SSE,165,0.0,0.0,22,0.00,,---,0.00,VWS V13.01,2013-02-06 00:24:00,
2013-02-05 17:29:00,55.9,17.6,29.97,SSE,165,0.0,0.0,22,0.00,,---,0.00,VWS V13.01,2013-02-06 00:29:00,
2013-02-05 17:30:00,55.9,18.7,29.97,SSE,165,0.0,0.0,23,0.00,,---,0.00,VWS V13.01,2013-02-06 00:30:00,
2013-02-05 17:34:00,55.3,18.1,29.97,SSE,166,0.0,0.0,23,0.00,,---,0.00,VWS V13.01,2013-02-06 00:34:00,
2013-02-05 17:39:00,54.7,17.6,29.97,SSE,165,0.0,0.0,23,0.00,,---,0.00,VWS V13.01,2013-02-06 00:39:00,
2013-02-05 17:44:00,54.2,18.2,29.98,SSE,166,0.0,1.0,24,0.00,,---,0.00,VWS V13.01,2013-02-06 00:44:00,
2013-02-05 17:45:00,54.2,18.2,29.98,SSE,166,0.0,1.0,24,0.00,,---,0.00,VWS V13.01,2013-02-06 00:45:00,
2013-02-05 17:49:00,53.8,17.9,29.98,SSE,166,0.0,0.0,24,0.00,,---,0.00,VWS V13.01,2013-02-06 00:49:00,
2013-02-05 17:54:00,53.4,17.5,29.98,SSE,165,0.0,0.0,24,0.00,,---,0.00,VWS V13.01,2013-02-06 00:54:00,
2013-02-05 17:59:00,52.9,18.0,29.98,SSE,166,0.0,0.0,25,0.00,,---,0.00,VWS V13.01,2013-02-06 00:59:00,
2013-02-05 18:00:00,52.9,18.0,29.98,SSE,166,0.0,0.0,25,0.00,,---,0.00,VWS V13.01,2013-02-06 01:00:00,
2013-02-05 18:05:00,52.5,17.7,29.98,SSE,166,0.0,0.0,25,0.00,,---,0.00,VWS V13.01,2013-02-06 01:05:00,
2013-02-05 18:10:00,52.2,17.5,30.00,SSE,165,0.0,0.0,25,0.00,,---,0.00,VWS V13.01,2013-02-06 01:10:00,
2013-02-05 18:15:00,51.8,18.0,30.00,SSE,165,0.0,0.0,26,0.00,,---,0.00,VWS V13.01,2013-02-06 01:15:00,
2013-02-05 18:20:00,51.3,17.6,30.00,SSE,166,0.0,0.0,26,0.00,,---,0.00,VWS V13.01,2013-02-06 01:20:00,
2013-02-05 18:25:00,50.7,17.1,30.00,SSE,166,0.0,0.0,26,0.00,,---,0.00,VWS V13.01,2013-02-06 01:25:00,
2013-02-05 18:30:00,50.3,17.6,30.01,SSE,166,0.0,0.0,27,0.00,,---,0.00,VWS V13.01,2013-02-06 01:30:00,
2013-02-05 18:35:00,49.7,17.1,30.01,SSE,166,0.0,0.0,27,0.00,,---,0.00,VWS V13.01,2013-02-06 01:35:00,
2013-02-05 18:40:00,49.4,17.7,30.01,SSE,165,0.0,0.0,28,0.00,,---,0.00,VWS V13.01,2013-02-06 01:40:00,
2013-02-05 18:45:00,49.0,17.3,30.01,SSE,165,0.0,0.0,28,0.00,,---,0.00,VWS V13.01,2013-02-06 01:45:00,
2013-02-05 18:50:00,48.2,17.5,30.02,SSE,166,1.0,1.0,29,0.00,,---,0.00,VWS V13.01,2013-02-06 01:50:00,
2013-02-05 18:55:00,47.4,17.5,30.02,SSE,166,0.0,1.0,30,0.00,,---,0.00,VWS V13.01,2013-02-06 01:55:00,
2013-02-05 19:00:00,47.0,17.2,30.02,SSE,166,0.0,1.0,30,0.00,,---,0.00,VWS V13.01,2013-02-06 02:00:00,
2013-02-05 19:05:00,47.0,17.2,30.00,SSE,166,2.0,3.0,30,0.00,,---,0.00,VWS V13.01,2013-02-06 02:05:00,
2013-02-05 19:10:00,47.0,17.2,30.00,SSE,165,0.0,3.0,30,0.00,,---,0.00,VWS V13.01,2013-02-06 02:10:00,
2013-02-05 19:15:00,46.7,16.9,30.00,SSE,165,0.0,3.0,30,0.00,,---,0.00,VWS V13.01,2013-02-06 02:15:00,
2013-02-05 19:20:00,46.2,16.5,30.02,SSE,165,1.0,3.0,30,0.00,,---,0.00,VWS V13.01,2013-02-06 02:20:00,
2013-02-05 19:25:00,46.0,17.1,30.02,SSE,165,2.0,3.0,31,0.00,,---,0.00,VWS V13.01,2013-02-06 02:25:00,
2013-02-05 19:30:00,46.2,16.5,30.02,SSE,166,3.0,4.0,30,0.00,,---,0.00,VWS V13.01,2013-02-06 02:30:00,
2013-02-05 19:35:00,46.4,17.4,30.01,SSE,165,2.0,4.0,31,0.00,,---,0.00,VWS V13.01,2013-02-06 02:35:00,
2013-02-05 19:40:00,46.5,17.5,30.00,SSE,166,3.0,4.0,31,0.00,,---,0.00,VWS V13.01,2013-02-06 02:40:00,
2013-02-05 19:45:00,46.4,17.4,30.02,SSE,166,2.0,4.0,31,0.00,,---,0.00,VWS V13.01,2013-02-06 02:45:00,
2013-02-05 19:50:00,46.0,17.8,30.02,SSE,166,0.0,3.0,32,0.00,,---,0.00,VWS V13.01,2013-02-06 02:50:00,
2013-02-05 19:55:00,45.8,18.4,30.02,SSE,165,0.0,3.0,33,0.00,,---,0.00,VWS V13.01,2013-02-06 02:55:00,
2013-02-05 20:00:00,45.2,17.8,30.02,SSE,165,0.0,3.0,33,0.00,,---,0.00,VWS V13.01,2013-02-06 03:00:00,
2013-02-05 20:05:00,44.2,17.6,30.00,SSE,166,0.0,0.0,34,0.00,,---,0.00,VWS V13.01,2013-02-06 03:05:00,
2013-02-05 20:10:00,43.6,17.8,30.00,SSE,166,0.0,0.0,35,0.00,,---,0.00,VWS V13.01,2013-02-06 03:10:00,
2013-02-05 20:15:00,42.9,17.8,30.00,SSE,165,1.0,2.0,36,0.00,,---,0.00,VWS V13.01,2013-02-06 03:15:00,
2013-02-05 20:20:00,42.0,17.6,30.00,SSE,166,2.0,3.0,37,0.00,,---,0.00,VWS V13.01,2013-02-06 03:20:00,
2013-02-05 20:25:00,41.6,17.9,30.00,SSE,165,3.0,4.0,38,0.00,,---,0.00,VWS V13.01,2013-02-06 03:25:00,
2013-02-05 20:30:00,42.5,18.7,30.00,SSE,166,3.0,5.0,38,0.00,,---,0.00,VWS V13.01,2013-02-06 03:30:00,
2013-02-05 20:35:00,43.9,19.3,29.99,SSE,167,3.0,5.0,37,0.00,,---,0.00,VWS V13.01,2013-02-06 03:35:00,
2013-02-05 20:40:00,44.2,19.0,29.99,South,171,3.0,5.0,36,0.00,,---,0.00,VWS V13.01,2013-02-06 03:40:00,
2013-02-05 20:45:00,44.4,19.1,30.00,South,185,1.0,5.0,36,0.00,,---,0.00,VWS V13.01,2013-02-06 03:45:00,
2013-02-05 20:50:00,44.7,19.4,29.99,South,185,2.0,3.0,36,0.00,,---,0.00,VWS V13.01,2013-02-06 03:50:00,
2013-02-05 20:55:00,45.0,19.0,29.99,South,185,2.0,4.0,35,0.00,,---,0.00,VWS V13.01,2013-02-06 03:55:00,
2013-02-05 21:00:00,44.9,19.6,29.99,South,185,2.0,4.0,36,0.00,,---,0.00,VWS V13.01,2013-02-06 04:00:00,
2013-02-05 21:05:00,44.2,19.0,29.97,South,185,3.0,4.0,36,0.00,,---,0.00,VWS V13.01,2013-02-06 04:05:00,
2013-02-05 21:10:00,43.8,19.2,29.97,South,185,0.0,4.0,37,0.00,,---,0.00,VWS V13.01,2013-02-06 04:10:00,
2013-02-05 21:15:00,43.4,18.9,29.97,South,184,0.0,4.0,37,0.00,,---,0.00,VWS V13.01,2013-02-06 04:15:00,
2013-02-05 21:20:00,43.3,18.8,29.97,South,185,2.0,2.0,37,0.00,,---,0.00,VWS V13.01,2013-02-06 04:20:00,
2013-02-05 21:25:00,43.5,19.0,29.97,South,184,1.0,3.0,37,0.00,,---,0.00,VWS V13.01,2013-02-06 04:25:00,
2013-02-05 21:30:00,43.4,18.9,29.97,South,184,2.0,3.0,37,0.00,,---,0.00,VWS V13.01,2013-02-06 04:30:00,
2013-02-05 21:35:00,42.8,19.0,29.97,South,185,2.0,4.0,38,0.00,,---,0.00,VWS V13.01,2013-02-06 04:35:00,
2013-02-05 21:40:00,42.5,19.3,29.97,South,185,3.0,4.0,39,0.00,,---,0.00,VWS V13.01,2013-02-06 04:40:00,
2013-02-05 21:45:00,42.1,19.0,29.98,South,185,1.0,4.0,39,0.00,,---,0.00,VWS V13.01,2013-02-06 04:45:00,
2013-02-05 21:50:00,41.7,19.2,29.98,South,185,0.0,2.0,40,0.00,,---,0.00,VWS V13.01,2013-02-06 04:50:00,
2013-02-05 21:55:00,41.2,18.7,29.98,South,184,0.0,2.0,40,0.00,,---,0.00,VWS V13.01,2013-02-06 04:55:00,
2013-02-05 22:00:00,39.8,18.0,29.99,South,185,2.0,4.0,41,0.00,,---,0.00,VWS V13.01,2013-02-06 05:00:00,
2013-02-05 22:05:00,37.6,17.1,29.98,South,187,0.0,5.0,43,0.00,,---,0.00,VWS V13.01,2013-02-06 05:05:00,
2013-02-05 22:10:00,36.6,17.3,29.99,SSW,194,5.0,5.0,45,0.00,,---,0.00,VWS V13.01,2013-02-06 05:10:00,
2013-02-05 22:15:00,36.4,17.6,29.99,SSW,195,0.0,5.0,46,0.00,,---,0.00,VWS V13.01,2013-02-06 05:15:00,
2013-02-05 22:20:00,36.8,18.5,29.99,SSW,195,1.0,2.0,47,0.00,,---,0.00,VWS V13.01,2013-02-06 05:20:00,
2013-02-05 22:25:00,37.7,18.8,29.98,SSW,195,3.0,4.0,46,0.00,,---,0.00,VWS V13.01,2013-02-06 05:25:00,
2013-02-05 22:30:00,38.7,19.2,29.99,SSW,195,0.0,4.0,45,0.00,,---,0.00,VWS V13.01,2013-02-06 05:30:00,
2013-02-05 22:35:00,38.7,18.7,29.99,SSW,195,3.0,3.0,44,0.00,,---,0.00,VWS V13.01,2013-02-06 05:35:00,
2013-02-05 22:40:00,38.6,19.1,29.99,SSW,195,1.0,5.0,45,0.00,,---,0.00,VWS V13.01,2013-02-06 05:40:00,
2013-02-05 22:45:00,38.6,19.1,29.98,SSW,195,0.0,5.0,45,0.00,,---,0.00,VWS V13.01,2013-02-06 05:45:00,
2013-02-05 22:50:00,38.3,18.8,29.99,SSW,195,0.0,0.0,45,0.00,,---,0.00,VWS V13.01,2013-02-06 05:50:00,
2013-02-05 22:56:00,38.0,18.6,29.99,SSW,195,1.0,1.0,45,0.00,,---,0.00,VWS V13.01,2013-02-06 05:56:00,
2013-02-05 23:00:00,37.6,18.2,29.99,SSW,195,0.0,2.0,45,0.00,,---,0.00,VWS V13.01,2013-02-06 06:00:00,
2013-02-05 23:01:00,37.5,18.1,29.99,SSW,195,0.0,0.0,45,0.00,,---,0.00,VWS V13.01,2013-02-06 06:01:00,
2013-02-05 23:06:00,36.6,17.8,29.99,SSW,195,0.0,0.0,46,0.00,,---,0.00,VWS V13.01,2013-02-06 06:06:00,
2013-02-05 23:11:00,35.7,17.5,30.00,SSW,195,0.0,0.0,47,0.00,,---,0.00,VWS V13.01,2013-02-06 06:11:00,
2013-02-05 23:15:00,35.1,17.4,30.00,SSW,195,0.0,0.0,48,0.00,,---,0.00,VWS V13.01,2013-02-06 06:15:00,
2013-02-05 23:16:00,34.8,17.1,30.00,SSW,195,0.0,0.0,48,0.00,,---,0.00,VWS V13.01,2013-02-06 06:16:00,
2013-02-05 23:21:00,34.1,17.0,30.01,SSW,195,0.0,0.0,49,0.00,,---,0.00,VWS V13.01,2013-02-06 06:21:00,
2013-02-05 23:26:00,33.5,17.3,30.01,SSW,195,1.0,1.0,51,0.00,,---,0.00,VWS V13.01,2013-02-06 06:26:00,
2013-02-05 23:30:00,33.2,17.0,30.01,SSW,195,0.0,2.0,51,0.00,,---,0.00,VWS V13.01,2013-02-06 06:30:00,
2013-02-05 23:31:00,33.2,17.0,30.01,SSW,195,0.0,0.0,51,0.00,,---,0.00,VWS V13.01,2013-02-06 06:31:00,
2013-02-05 23:36:00,33.1,17.4,30.01,SSW,195,0.0,1.0,52,0.00,,---,0.00,VWS V13.01,2013-02-06 06:36:00,
2013-02-05 23:41:00,33.0,17.3,30.01,SSW,195,0.0,1.0,52,0.00,,---,0.00,VWS V13.01,2013-02-06 06:41:00,
2013-02-05 23:45:00,33.1,17.8,30.01,SSW,195,0.0,1.0,53,0.00,,---,0.00,VWS V13.01,2013-02-06 06:45:00,
2013-02-05 23:46:00,33.1,17.8,30.01,SSW,195,0.0,0.0,53,0.00,,---,0.00,VWS V13.01,2013-02-06 06:46:00,
2013-02-05 23:51:00,33.0,17.3,30.01,SSW,195,0.0,0.0,52,0.00,,---,0.00,VWS V13.01,2013-02-06 06:51:00,
2013-02-05 23:56:00,33.0,17.3,30.01,SSW,195,0.0,0.0,52,0.00,,---,0.00,VWS V13.01,2013-02-06 06:56:00,